User: anonymous   Login
Location: Unspecified
(41.1637°N, 0.0000°E)
Time: 12:41:31
(UTC+00:00)
Language:

XW-2A - Orbit

View from above orbital plane
View from above orbital plane
View from above satellite
View from above satellite

Ground track
Ground track

The orbit data is extracted from the following two-line orbital elements,

1 40903U 15049E   19296.12365508  .00001755  00000-0  42771-4 0  9995
2 40903  97.3241 339.5295 0014909  51.4850  33.2553 15.42216010229732
Epoch (UTC): 23 October 2019 02:58:03
Eccentricity: 0.0014909
inclination: 97.3241°
perigee height: 429 km
apogee height: 450 km
right ascension of ascending node: 339.5295°
argument of perigee: 51.4850°
revolutions per day: 15.42216010
mean anomaly at epoch: 33.2553°
orbit number at epoch: 22973

The dashed part of the orbit path shows where the satellite is in the earth's shadow,  

DLR